Location: Avully
(45.9633°N, 6.0228°E)
Time: 06:29:09
(UTC+00:00)

Cosmos 2360 Rocket - Pass Details

Date: 12 August 2024
Orbit: 834 x 843 km, 71.0° (Epoch: 16 September)

Event Time Altitude Azimuth Distance (km) Brightness Sun altitude
Exits shadow 22:42:00 18° 77° (ENE) 1,941 4.0 -28.0°
Drops below altitude 10° 22:44:24 10° 54° (NE) 2,467 4.8 -28.1°
Sets 22:47:24 0° 39° (NE) 3,405 5.8 -28.3°
